Yorktown Express — WDD6127 — position and weather

sailwx.info

Track history (hours):
 
Tides and Currents Weather Stations Pressure Air Temp Water Temp Dewpoint Dewpoint Depression Visibility Wind Speed Wind Dir Waves Ship Positions

Yorktown Express

More information available from US FCC via Universal Licensing System and Coast Guard Vessel Documentation Center.

Last reported at 2014-Jul-22 22:32 UTC. Time now 2014-Jul-22 23:20 UTC.
Position N 50°36' W 001°02'.

Type: Cargo ship. MMSI: 367168650.

Date/timePositionNaut miles runAvg speedWind from/ knotsBaromVisibWave heightAir tempDewpointWater temp
2014-Jul-22 22:32N 50°36' W 001°02'0 0.0
2014-Jul-22 21:32N 50°36' W 001°02'0 0.2
2014-Jul-22 20:32N 50°36' W 001°01'0 0.1
2014-Jul-22 19:32N 50°36' W 001°01'0 0.0
2014-Jul-22 18:32N 50°36' W 001°01'0 0.0
2014-Jul-22 17:32N 50°36' W 001°01'0 0.0
2014-Jul-22 16:32N 50°36' W 001°01'0 0.0
2014-Jul-22 15:32N 50°36' W 001°01'0 0.0
2014-Jul-22 14:32N 50°36' W 001°01'0 0.2
2014-Jul-22 13:29N 50°36' W 001°02'0 0.1
2014-Jul-22 12:32N 50°36' W 001°02'0 0.0
2014-Jul-22 11:29N 50°36' W 001°02'0 0.0
2014-Jul-22 10:29N 50°36' W 001°02'0 0.1
2014-Jul-22 09:33N 50°36' W 001°02'6 5.9
2014-Jul-22 08:33N 50°36' W 000°52'1110.6
2014-Jul-22 07:33N 50°34' W 000°36'1010.0
2014-Jul-22 06:33N 50°33' W 000°20'1110.6
2014-Jul-22 05:33N 50°32' W 000°04'1212.0
2014-Jul-22 04:33N 50°34' E 000°15'1212.3
2014-Jul-22 03:33N 50°37' E 000°34'1313.3
2014-Jul-22 02:33N 50°43' E 000°52'1414.5
2014-Jul-22 01:33N 50°52' E 001°11'1514.6
2014-Jul-22 00:33N 51°02' E 001°28'1312.8
2014-Jul-21 23:33N 51°11' E 001°42'1312.7
2014-Jul-21 22:33N 51°21' E 001°53'1212.1
2014-Jul-21 21:33N 51°30' E 002°06'1212.5
2014-Jul-21 20:33N 51°40' E 002°18'312.6
2014-Jul-21 20:18N 51°43' E 002°22'1012.9
2014-Jul-21 19:33N 51°51' E 002°31'1313.5
2014-Jul-21 18:33N 52°01' E 002°45'1814.4
2014-Jul-21 17:19N 52°14' E 003°04'4114.7
2014-Jul-21 14:33N 52°47' E 003°44'1816.0
2014-Jul-21 13:25N 53°00' E 004°04'1516.9
2014-Jul-21 12:32N 53°10' E 004°23'1716.8
2014-Jul-21 11:33N 53°25' E 004°35'1616.5
2014-Jul-21 10:33N 53°34' E 004°58'1918.6
2014-Jul-21 09:33N 53°39' E 005°28'2019.6
2014-Jul-21 08:33N 53°46' E 005°59'2019.5
2014-Jul-21 07:31N 53°51' E 006°32'3718.8
2014-Jul-21 05:33N 53°59' E 007°34'1413.9
2014-Jul-21 04:33N 53°52' E 007°54'1413.7
2014-Jul-21 03:34N 53°45' E 008°13'1312.9
2014-Jul-21 02:34N 53°36' E 008°30'2 1.6
2014-Jul-21 01:34N 53°35' E 008°32'0 0.0
2014-Jul-21 00:32N 53°35' E 008°32'0 0.0
2014-Jul-20 23:32N 53°35' E 008°32'0 0.0
2014-Jul-20 22:32N 53°35' E 008°32'0 0.0
2014-Jul-20 21:32N 53°35' E 008°32'0 0.0
2014-Jul-20 20:32N 53°35' E 008°32'0 0.0
2014-Jul-20 19:32N 53°35' E 008°32'0 0.0
2014-Jul-20 18:32N 53°35' E 008°32'0 0.0
2014-Jul-20 17:32N 53°35' E 008°32'0 0.0
2014-Jul-20 16:32N 53°35' E 008°32'0 0.0
2014-Jul-20 15:32N 53°35' E 008°32'0 0.0
2014-Jul-20 14:32N 53°35' E 008°32'0 0.0
2014-Jul-20 13:32N 53°35' E 008°32'0 0.0
2014-Jul-20 12:32N 53°35' E 008°32'0 0.0
2014-Jul-20 11:32N 53°35' E 008°32'0 0.0
2014-Jul-20 10:32N 53°35' E 008°32'0 0.0
2014-Jul-20 09:32N 53°35' E 008°32'0 0.0
2014-Jul-20 08:32N 53°35' E 008°32'0 0.0
2014-Jul-20 07:32N 53°35' E 008°32'0 0.0
2014-Jul-20 06:32N 53°35' E 008°32'0 0.0
2014-Jul-20 05:32N 53°35' E 008°32'0 0.0
2014-Jul-20 04:32N 53°35' E 008°32'0 0.0
2014-Jul-20 03:32N 53°35' E 008°32'0 0.0
2014-Jul-20 02:32N 53°35' E 008°32'0 0.0
2014-Jul-20 01:32N 53°35' E 008°32'0 0.0
2014-Jul-20 00:33N 53°35' E 008°32'5 5.2
2014-Jul-19 23:33N 53°39' E 008°25'1515.1
2014-Jul-19 22:33N 53°49' E 008°07'1313.0
2014-Jul-19 21:33N 53°54' E 007°46'1 1.1
2014-Jul-19 20:32N 53°55' E 007°46'0 0.0
2014-Jul-19 19:11N 53°55' E 007°46'0 0.0
2014-Jul-19 18:32N 53°55' E 007°46'0 0.1
2014-Jul-19 14:11N 53°55' E 007°46'0 0.0
2014-Jul-19 13:31N 53°55' E 007°46'0 0.1
2014-Jul-19 12:31N 53°55' E 007°46'0 0.2
2014-Jul-19 11:32N 53°55' E 007°46'0 0.0
2014-Jul-19 10:34N 53°55' E 007°46'0 0.0
2014-Jul-19 09:33N 53°55' E 007°46'4 4.3
2014-Jul-19 08:33N 53°55' E 007°39'1010.2
2014-Jul-19 07:33N 53°53' E 007°22'1212.3
2014-Jul-19 06:33N 53°51' E 007°01'1312.6
2014-Jul-19 05:33N 53°48' E 006°40'1312.8
2014-Jul-19 04:34N 53°45' E 006°19'1313.1
2014-Jul-19 03:34N 53°41' E 005°58'1313.4
2014-Jul-19 02:33N 53°36' E 005°37'1413.8
2014-Jul-19 01:33N 53°31' E 005°15'1414.0
2014-Jul-19 00:34N 53°27' E 004°53'1313.2
2014-Jul-18 23:33N 53°18' E 004°37'1515.2
2014-Jul-18 22:34N 53°04' E 004°25'1515.3
2014-Jul-18 21:33N 52°50' E 004°14'1514.7
2014-Jul-18 20:33N 52°39' E 003°58'1514.5
2014-Jul-18 19:33N 52°29' E 003°41'1313.1
2014-Jul-18 18:33N 52°18' E 003°29'1814.4
2014-Jul-18 17:17N 52°00' E 003°23'911.5
2014-Jul-18 16:33N 51°52' E 003°20'1111.4
2014-Jul-18 15:33N 51°41' E 003°13'1413.8
2014-Jul-18 14:32N 51°29' E 003°02'1010.6
2014-Jul-18 13:33N 51°25' E 003°17'1414.4
2014-Jul-18 12:33N 51°26' E 003°40'1111.0
2014-Jul-18 11:33N 51°24' E 003°57'10 9.9
2014-Jul-18 10:34N 51°23' E 004°13'3 3.4
2014-Jul-18 09:34N 51°20' E 004°16'0 0.0
2014-Jul-18 08:34N 51°20' E 004°16'0 0.0
2014-Jul-18 07:33N 51°20' E 004°16'0 0.0
2014-Jul-18 06:34N 51°20' E 004°16'0 0.0
2014-Jul-18 05:34N 51°20' E 004°16'0 0.0
2014-Jul-18 04:33N 51°20' E 004°16'0 0.0
2014-Jul-18 03:33N 51°20' E 004°16'0 0.0
2014-Jul-18 02:33N 51°20' E 004°16'0 0.0
2014-Jul-18 01:34N 51°20' E 004°16'0 0.0
2014-Jul-18 00:34N 51°20' E 004°16'0 0.0
2014-Jul-17 23:34N 51°20' E 004°16'0 0.0
2014-Jul-17 22:34N 51°20' E 004°16'0 0.0
2014-Jul-17 21:34N 51°20' E 004°16'0 0.0
2014-Jul-17 20:33N 51°20' E 004°16'0 0.0
2014-Jul-17 19:33N 51°20' E 004°16'0 0.0
2014-Jul-17 18:33N 51°20' E 004°16'0 0.0
2014-Jul-17 17:33N 51°20' E 004°16'0 0.0
2014-Jul-17 16:33N 51°20' E 004°16'0 0.0
2014-Jul-17 15:33N 51°20' E 004°16'0 0.0
2014-Jul-17 14:33N 51°20' E 004°16'0 0.0
2014-Jul-17 13:33N 51°20' E 004°16'0 0.0
2014-Jul-17 12:33N 51°20' E 004°16'0 0.0
2014-Jul-17 11:33N 51°20' E 004°16'0 0.0
2014-Jul-17 10:33N 51°20' E 004°16'0 0.0
2014-Jul-17 09:33N 51°20' E 004°16'0 0.0
2014-Jul-17 08:33N 51°20' E 004°16'0 0.0
2014-Jul-17 07:33N 51°20' E 004°16'0 0.0
2014-Jul-17 06:33N 51°20' E 004°16'0 0.0
2014-Jul-17 05:33N 51°20' E 004°16'0 0.0
2014-Jul-17 04:33N 51°20' E 004°16'0 0.0
2014-Jul-17 03:33N 51°20' E 004°16'0 0.0
2014-Jul-17 02:34N 51°20' E 004°16'0 0.0
2014-Jul-17 01:33N 51°20' E 004°16'0 0.0
2014-Jul-17 00:33N 51°20' E 004°16'0 0.0
2014-Jul-16 23:34N 51°20' E 004°16'1 1.0
2014-Jul-16 22:33N 51°21' E 004°15'8 8.1
2014-Jul-16 21:34N 51°23' E 004°03'7 6.8
2014-Jul-16 20:34N 51°21' E 003°52'1010.1
2014-Jul-16 19:33N 51°26' E 003°39'1010.0
2014-Jul-16 18:33N 51°24' E 003°23'1717.3
2014-Jul-16 17:33N 51°22' E 002°55'1313.4
2014-Jul-16 16:33N 51°22' E 002°34'1312.9
2014-Jul-16 15:33N 51°17' E 002°15'1615.5
2014-Jul-16 14:33N 51°10' E 001°53'1615.9
2014-Jul-16 13:33N 50°60' E 001°33'1514.5
2014-Jul-16 12:33N 50°47' E 001°23'1313.0
2014-Jul-16 11:34N 50°37' E 001°10'1714.6
2014-Jul-16 10:25N 50°28' E 000°47'1314.8
2014-Jul-16 09:33N 50°25' E 000°28'1614.0
2014-Jul-16 08:26N 50°21' E 000°05'1212.8
2014-Jul-16 07:28N 50°16' W 000°14'1112.7
2014-Jul-16 06:34N 50°13' W 000°31'1211.8
2014-Jul-16 05:33N 50°11' W 000°49'1111.0
2014-Jul-16 04:34N 50°08' W 001°06'9 9.0
2014-Jul-16 03:34N 50°06' W 001°19'8 7.8
2014-Jul-16 02:33N 50°03' W 001°31'9 9.5
2014-Jul-16 01:34N 50°01' W 001°45'1211.5
2014-Jul-16 00:33N 49°57' W 002°02'1312.8
2014-Jul-15 23:34N 49°54' W 002°22'2014.0
2014-Jul-15 22:06N 49°49' W 002°52'1114.1
2014-Jul-15 21:18N 49°48' W 003°09'30214.2
2014-Jul-15 00:00N 49°24' W 010°54'29316.3 250 / 111019.010.8 1.017.011.519.0
2014-Jul-14 06:00N 48°48' W 018°18'32618.1 270 / 221015.0 2.2 2.518.016.319.0
2014-Jul-13 12:00N 47°30' W 026°12'24720.5 220 / 201022.2 5.4 2.023.019.919.0
2014-Jul-13 00:00N 46°12' W 031°54'   230 / 171027.010.8 2.020.016.721.0
Track history (hours):
 
Tides and Currents Weather Stations Pressure Air Temp Water Temp Dewpoint Dewpoint Depression Visibility Wind Speed Wind Dir Waves Ship Positions

Yorktown Express

More information available from US FCC via Universal Licensing System and Coast Guard Vessel Documentation Center.

Last reported at 2014-Jul-22 22:32 UTC. Time now 2014-Jul-22 23:20 UTC.
Position N 50°36' W 001°02'.

Type: Cargo ship. MMSI: 367168650.

Date/timePositionNaut miles runAvg speedWind from/ knotsBaromVisibWave heightAir tempDewpointWater temp
2014-Jul-22 22:32N 50°36' W 001°02'0 0.0
2014-Jul-22 21:32N 50°36' W 001°02'0 0.2
2014-Jul-22 20:32N 50°36' W 001°01'0 0.1
2014-Jul-22 19:32N 50°36' W 001°01'0 0.0
2014-Jul-22 18:32N 50°36' W 001°01'0 0.0
2014-Jul-22 17:32N 50°36' W 001°01'0 0.0
2014-Jul-22 16:32N 50°36' W 001°01'0 0.0
2014-Jul-22 15:32N 50°36' W 001°01'0 0.0
2014-Jul-22 14:32N 50°36' W 001°01'0 0.2
2014-Jul-22 13:29N 50°36' W 001°02'0 0.1
2014-Jul-22 12:32N 50°36' W 001°02'0 0.0
2014-Jul-22 11:29N 50°36' W 001°02'0 0.0
2014-Jul-22 10:29N 50°36' W 001°02'0 0.1
2014-Jul-22 09:33N 50°36' W 001°02'6 5.9
2014-Jul-22 08:33N 50°36' W 000°52'1110.6
2014-Jul-22 07:33N 50°34' W 000°36'1010.0
2014-Jul-22 06:33N 50°33' W 000°20'1110.6
2014-Jul-22 05:33N 50°32' W 000°04'1212.0
2014-Jul-22 04:33N 50°34' E 000°15'1212.3
2014-Jul-22 03:33N 50°37' E 000°34'1313.3
2014-Jul-22 02:33N 50°43' E 000°52'1414.5
2014-Jul-22 01:33N 50°52' E 001°11'1514.6
2014-Jul-22 00:33N 51°02' E 001°28'1312.8
2014-Jul-21 23:33N 51°11' E 001°42'1312.7
2014-Jul-21 22:33N 51°21' E 001°53'1212.1
2014-Jul-21 21:33N 51°30' E 002°06'1212.5
2014-Jul-21 20:33N 51°40' E 002°18'312.6
2014-Jul-21 20:18N 51°43' E 002°22'1012.9
2014-Jul-21 19:33N 51°51' E 002°31'1313.5
2014-Jul-21 18:33N 52°01' E 002°45'1814.4
2014-Jul-21 17:19N 52°14' E 003°04'4114.7
2014-Jul-21 14:33N 52°47' E 003°44'1816.0
2014-Jul-21 13:25N 53°00' E 004°04'1516.9
2014-Jul-21 12:32N 53°10' E 004°23'1716.8
2014-Jul-21 11:33N 53°25' E 004°35'1616.5
2014-Jul-21 10:33N 53°34' E 004°58'1918.6
2014-Jul-21 09:33N 53°39' E 005°28'2019.6
2014-Jul-21 08:33N 53°46' E 005°59'2019.5
2014-Jul-21 07:31N 53°51' E 006°32'3718.8
2014-Jul-21 05:33N 53°59' E 007°34'1413.9
2014-Jul-21 04:33N 53°52' E 007°54'1413.7
2014-Jul-21 03:34N 53°45' E 008°13'1312.9
2014-Jul-21 02:34N 53°36' E 008°30'2 1.6
2014-Jul-21 01:34N 53°35' E 008°32'0 0.0
2014-Jul-21 00:32N 53°35' E 008°32'0 0.0
2014-Jul-20 23:32N 53°35' E 008°32'0 0.0
2014-Jul-20 22:32N 53°35' E 008°32'0 0.0
2014-Jul-20 21:32N 53°35' E 008°32'0 0.0
2014-Jul-20 20:32N 53°35' E 008°32'0 0.0
2014-Jul-20 19:32N 53°35' E 008°32'0 0.0
2014-Jul-20 18:32N 53°35' E 008°32'0 0.0
2014-Jul-20 17:32N 53°35' E 008°32'0 0.0
2014-Jul-20 16:32N 53°35' E 008°32'0 0.0
2014-Jul-20 15:32N 53°35' E 008°32'0 0.0
2014-Jul-20 14:32N 53°35' E 008°32'0 0.0
2014-Jul-20 13:32N 53°35' E 008°32'0 0.0
2014-Jul-20 12:32N 53°35' E 008°32'0 0.0
2014-Jul-20 11:32N 53°35' E 008°32'0 0.0
2014-Jul-20 10:32N 53°35' E 008°32'0 0.0
2014-Jul-20 09:32N 53°35' E 008°32'0 0.0
2014-Jul-20 08:32N 53°35' E 008°32'0 0.0
2014-Jul-20 07:32N 53°35' E 008°32'0 0.0
2014-Jul-20 06:32N 53°35' E 008°32'0 0.0
2014-Jul-20 05:32N 53°35' E 008°32'0 0.0
2014-Jul-20 04:32N 53°35' E 008°32'0 0.0
2014-Jul-20 03:32N 53°35' E 008°32'0 0.0
2014-Jul-20 02:32N 53°35' E 008°32'0 0.0
2014-Jul-20 01:32N 53°35' E 008°32'0 0.0
2014-Jul-20 00:33N 53°35' E 008°32'5 5.2
2014-Jul-19 23:33N 53°39' E 008°25'1515.1
2014-Jul-19 22:33N 53°49' E 008°07'1313.0
2014-Jul-19 21:33N 53°54' E 007°46'1 1.1
2014-Jul-19 20:32N 53°55' E 007°46'0 0.0
2014-Jul-19 19:11N 53°55' E 007°46'0 0.0
2014-Jul-19 18:32N 53°55' E 007°46'0 0.1
2014-Jul-19 14:11N 53°55' E 007°46'0 0.0
2014-Jul-19 13:31N 53°55' E 007°46'0 0.1
2014-Jul-19 12:31N 53°55' E 007°46'0 0.2
2014-Jul-19 11:32N 53°55' E 007°46'0 0.0
2014-Jul-19 10:34N 53°55' E 007°46'0 0.0
2014-Jul-19 09:33N 53°55' E 007°46'4 4.3
2014-Jul-19 08:33N 53°55' E 007°39'1010.2
2014-Jul-19 07:33N 53°53' E 007°22'1212.3
2014-Jul-19 06:33N 53°51' E 007°01'1312.6
2014-Jul-19 05:33N 53°48' E 006°40'1312.8
2014-Jul-19 04:34N 53°45' E 006°19'1313.1
2014-Jul-19 03:34N 53°41' E 005°58'1313.4
2014-Jul-19 02:33N 53°36' E 005°37'1413.8
2014-Jul-19 01:33N 53°31' E 005°15'1414.0
2014-Jul-19 00:34N 53°27' E 004°53'1313.2
2014-Jul-18 23:33N 53°18' E 004°37'1515.2
2014-Jul-18 22:34N 53°04' E 004°25'1515.3
2014-Jul-18 21:33N 52°50' E 004°14'1514.7
2014-Jul-18 20:33N 52°39' E 003°58'1514.5
2014-Jul-18 19:33N 52°29' E 003°41'1313.1
2014-Jul-18 18:33N 52°18' E 003°29'1814.4
2014-Jul-18 17:17N 52°00' E 003°23'911.5
2014-Jul-18 16:33N 51°52' E 003°20'1111.4
2014-Jul-18 15:33N 51°41' E 003°13'1413.8
2014-Jul-18 14:32N 51°29' E 003°02'1010.6
2014-Jul-18 13:33N 51°25' E 003°17'1414.4
2014-Jul-18 12:33N 51°26' E 003°40'1111.0
2014-Jul-18 11:33N 51°24' E 003°57'10 9.9
2014-Jul-18 10:34N 51°23' E 004°13'3 3.4
2014-Jul-18 09:34N 51°20' E 004°16'0 0.0
2014-Jul-18 08:34N 51°20' E 004°16'0 0.0
2014-Jul-18 07:33N 51°20' E 004°16'0 0.0
2014-Jul-18 06:34N 51°20' E 004°16'0 0.0
2014-Jul-18 05:34N 51°20' E 004°16'0 0.0
2014-Jul-18 04:33N 51°20' E 004°16'0 0.0
2014-Jul-18 03:33N 51°20' E 004°16'0 0.0
2014-Jul-18 02:33N 51°20' E 004°16'0 0.0
2014-Jul-18 01:34N 51°20' E 004°16'0 0.0
2014-Jul-18 00:34N 51°20' E 004°16'0 0.0
2014-Jul-17 23:34N 51°20' E 004°16'0 0.0
2014-Jul-17 22:34N 51°20' E 004°16'0 0.0
2014-Jul-17 21:34N 51°20' E 004°16'0 0.0
2014-Jul-17 20:33N 51°20' E 004°16'0 0.0
2014-Jul-17 19:33N 51°20' E 004°16'0 0.0
2014-Jul-17 18:33N 51°20' E 004°16'0 0.0
2014-Jul-17 17:33N 51°20' E 004°16'0 0.0
2014-Jul-17 16:33N 51°20' E 004°16'0 0.0
2014-Jul-17 15:33N 51°20' E 004°16'0 0.0
2014-Jul-17 14:33N 51°20' E 004°16'0 0.0
2014-Jul-17 13:33N 51°20' E 004°16'0 0.0
2014-Jul-17 12:33N 51°20' E 004°16'0 0.0
2014-Jul-17 11:33N 51°20' E 004°16'0 0.0
2014-Jul-17 10:33N 51°20' E 004°16'0 0.0
2014-Jul-17 09:33N 51°20' E 004°16'0 0.0
2014-Jul-17 08:33N 51°20' E 004°16'0 0.0
2014-Jul-17 07:33N 51°20' E 004°16'0 0.0
2014-Jul-17 06:33N 51°20' E 004°16'0 0.0
2014-Jul-17 05:33N 51°20' E 004°16'0 0.0
2014-Jul-17 04:33N 51°20' E 004°16'0 0.0
2014-Jul-17 03:33N 51°20' E 004°16'0 0.0
2014-Jul-17 02:34N 51°20' E 004°16'0 0.0
2014-Jul-17 01:33N 51°20' E 004°16'0 0.0
2014-Jul-17 00:33N 51°20' E 004°16'0 0.0
2014-Jul-16 23:34N 51°20' E 004°16'1 1.0
2014-Jul-16 22:33N 51°21' E 004°15'8 8.1
2014-Jul-16 21:34N 51°23' E 004°03'7 6.8
2014-Jul-16 20:34N 51°21' E 003°52'1010.1
2014-Jul-16 19:33N 51°26' E 003°39'1010.0
2014-Jul-16 18:33N 51°24' E 003°23'1717.3
2014-Jul-16 17:33N 51°22' E 002°55'1313.4
2014-Jul-16 16:33N 51°22' E 002°34'1312.9
2014-Jul-16 15:33N 51°17' E 002°15'1615.5
2014-Jul-16 14:33N 51°10' E 001°53'1615.9
2014-Jul-16 13:33N 50°60' E 001°33'1514.5
2014-Jul-16 12:33N 50°47' E 001°23'1313.0
2014-Jul-16 11:34N 50°37' E 001°10'1714.6
2014-Jul-16 10:25N 50°28' E 000°47'1314.8
2014-Jul-16 09:33N 50°25' E 000°28'1614.0
2014-Jul-16 08:26N 50°21' E 000°05'1212.8
2014-Jul-16 07:28N 50°16' W 000°14'1112.7
2014-Jul-16 06:34N 50°13' W 000°31'1211.8
2014-Jul-16 05:33N 50°11' W 000°49'1111.0
2014-Jul-16 04:34N 50°08' W 001°06'9 9.0
2014-Jul-16 03:34N 50°06' W 001°19'8 7.8
2014-Jul-16 02:33N 50°03' W 001°31'9 9.5
2014-Jul-16 01:34N 50°01' W 001°45'1211.5
2014-Jul-16 00:33N 49°57' W 002°02'1312.8
2014-Jul-15 23:34N 49°54' W 002°22'2014.0
2014-Jul-15 22:06N 49°49' W 002°52'1114.1
2014-Jul-15 21:18N 49°48' W 003°09'30214.2
2014-Jul-15 00:00N 49°24' W 010°54'29316.3 250 / 111019.010.8 1.017.011.519.0
2014-Jul-14 06:00N 48°48' W 018°18'32618.1 270 / 221015.0 2.2 2.518.016.319.0
2014-Jul-13 12:00N 47°30' W 026°12'24720.5 220 / 201022.2 5.4 2.023.019.919.0
2014-Jul-13 00:00N 46°12' W 031°54'   230 / 171027.010.8 2.020.016.721.0

Dump ship's entire track history